Zurück zum Katalog

FENGYUN 1C DEB

AktivSSO
NORAD 30317·DEBRIS·🇨🇳 China

Gestartet May 10, 1999 von Taiyuan Satellite Launch Center

Loading…

Nächste Überflüge (nächste 24 Stunden)

TLE

AktuellSource: Space-Track

Epoche: Sep 14, 2026, 10:18 UTC

1 30317U 99025AAE 26257.42952158  .00000283  00000-0  19468-3 0  9991
2 30317  98.7968 255.2931 0024379 218.9876 140.9536 14.07067562  8875

Verfolge FENGYUN 1C DEB in Echtzeit mit AllMySat

Download on the App Store